Weather History for MROC - October, 2013

Change the Weather History Date:

Tuesday, October 29, 2013

  Actual Average Record
Temperature  
Mean Temperature 75 °F -  
Max Temperature 84 °F 78 °F 84 °F (1997)
Min Temperature 66 °F 64 °F 60 °F (1999)
Cooling Degree Days 10    
Growing Degree Days 25 (Base 50)    
Moisture  
Dew Point 66 °F    
Average Humidity 79    
Maximum Humidity 100    
Minimum Humidity 48    
Precipitation  
Precipitation 0.08 in 0.19 in - ()
Sea Level Pressure  
Sea Level Pressure 29.97 in    
Wind  
Wind Speed 7 mph ()    
Max Wind Speed 20 mph    
Max Gust Speed -    
Visibility 7.5 miles    
Events Fog , Rain    
Averages and records for this station are not official NWS values.
T = Trace of Precipitation, MM = Missing Value Source: Averaged Metar Reports

Daily Weather History Graph

Daily Weather History Graph

Search for Another Location

Airport or City:

Trip Planner

Search our weather history database for the weather conditions in past years. The results will help you decide how hot, cold, wet, or windy it might be!

Date:

Astronomy

Oct. 29, 2013 Rise Set
Actual Time 5:26 AM CST 5:14 PM CST
Civil Twilight 5:05 AM CST 5:35 PM CST
Nautical Twilight 4:40 AM CST 6:00 PM CST
Astronomical Twilight 4:15 AM CST 6:25 PM CST
Moon 1:09 AM CST 1:39 PM CST
Length of Visible Light 12h 30m
Length of Day
11h 47m
Waning Crescent, 24% of the Moon is Illuminated
Oct 29
Waning Crescent
Nov 3
New
Nov 9
First Quarter
Nov 17
Full
Nov 25
Last Quarter

Hourly Weather History & Observations

Time (CST) Temp. Heat Index Dew Point Humidity Pressure Visibility Wind Dir Wind Speed Gust Speed Precip Events Conditions
12:00 AM 69 °F - 64 °F 78% 29.86 in 12 mi NE 9.2 mph - -   Scattered Clouds
12:00 AM 69.8 °F - 64.4 °F 83% 30.00 in - ENE 9.2 mph - N/A   Clear
1:00 AM 69.8 °F - 62.6 °F 78% 29.98 in - ENE 4.6 mph - N/A   Clear
2:00 AM 68.0 °F - 62.6 °F 83% 29.97 in - ENE 5.8 mph - N/A   Clear
3:00 AM 67 °F - 62 °F 79%  in 12 mi NE 5.8 mph - -   Partly Cloudy
3:00 AM 66.2 °F - 62.6 °F 88% 29.96 in - NE 5.8 mph - N/A   Clear
4:00 AM 68.0 °F - 62.6 °F 83% 29.96 in - NNE 3.5 mph - N/A   Clear
5:00 AM 68.0 °F - 60.8 °F 78% 29.98 in - NNE 4.6 mph - N/A   Clear
6:00 AM 69 °F - 61 °F 68% 29.87 in 12 mi Calm Calm - -   Mostly Cloudy
6:00 AM 68.0 °F - 60.8 °F 78% 30.00 in - Calm Calm - N/A   Clear
7:00 AM 71.6 °F - 60.8 °F 69% 30.02 in - NE 15.0 mph - N/A   Clear
8:00 AM 75.2 °F - 64.4 °F 69% 30.04 in 6.2 mi East 15.0 mph - N/A   Mostly Cloudy
9:00 AM 79 °F - 64 °F 51% 29.86 in 12 mi East 19.6 mph - -   Scattered Clouds
9:00 AM 78.8 °F - 64.4 °F 61% 30.04 in 6.2 mi East 19.6 mph - N/A   Mostly Cloudy
10:00 AM 80.6 °F 82.3 °F 64.4 °F 58% 30.04 in 6.2 mi ESE 16.1 mph - N/A   Scattered Clouds
11:00 AM 84.2 °F 85.0 °F 62.6 °F 48% 30.02 in 6.2 mi ESE 12.7 mph - N/A   Scattered Clouds
12:00 PM 79 °F - 68 °F 62% 29.83 in 12 mi SSW 11.5 mph - -   Partly Cloudy
12:00 PM 78.8 °F - 68.0 °F 69% 30.00 in 6.2 mi SSW 11.5 mph - N/A   Scattered Clouds
1:00 PM 78.8 °F - 69.8 °F 74% 29.97 in 6.2 mi West 15.0 mph - N/A   Scattered Clouds
2:00 PM 77.0 °F - 69.8 °F 78% 29.94 in 6.2 mi WSW 10.4 mph - N/A   Mostly Cloudy
3:00 PM 76 °F - 70 °F 76% 29.76 in 12 mi West 9.2 mph - -   Mostly Cloudy
3:00 PM 77.0 °F - 69.8 °F 78% 29.94 in 6.2 mi West 9.2 mph - N/A   Mostly Cloudy
4:00 PM 75.2 °F - 69.8 °F 83% 29.95 in 6.2 mi WSW 10.4 mph - N/A   Mostly Cloudy
5:00 PM 71.6 °F - 69.8 °F 94% 29.97 in 6.2 mi WSW 8.1 mph - N/A Fog , Rain Rain
6:00 PM 71 °F - 71 °F 98% 29.84 in 6 mi WSW 4.6 mph - - Fog Patches of Fog
6:00 PM 71.6 °F - 69.8 °F 94% 30.00 in 6.2 mi WSW 4.6 mph - N/A Fog Mostly Cloudy
7:00 PM 71.6 °F - 71.6 °F 100% 30.03 in 6.2 mi West 4.6 mph - N/A Fog Mostly Cloudy
8:00 PM 69.8 °F - 69.8 °F 100% 30.06 in 4.3 mi WSW 3.5 mph - N/A Fog Patches of Fog
9:00 PM 70 °F - 69 °F 96% 29.86 in 6 mi NW 3.5 mph - -   Partly Cloudy
9:00 PM 69.8 °F - 69.8 °F 100% 30.05 in 6.2 mi NW 2.3 mph - N/A   Mostly Cloudy
10:00 PM 71.6 °F - 68.0 °F 88% 30.07 in 5.0 mi NE 3.5 mph - N/A Rain Light Rain
11:00 PM 68.0 °F - 66.2 °F 94% 30.05 in 6.2 mi East 3.5 mph - N/A Rain Light Rain